星链-3846 (STARLINK-3846 )

导读 | 星芒AI

STARLINK-3846 是 SpaceX Starlink 项目中的一颗低轨通信卫星,属于第三代星链卫星(v1.5 或 v2 版本)。它运行在约 550 公里的轨道高度,旨在为全球用户提供高速互联网服务。该卫星采用先进的推进系统和激光通信技术,提升网络稳定性和传输效率。作为星链星座的一部分,STARLINK-3846 有助于扩大覆盖范围,特别是在偏远和网络基础设施薄弱的地区。其部署是 SpaceX 实现全球宽带覆盖战略的重要一环。

基本信息
目录编号:
52647
目录名称:
STARLINK-3846
国际标识:
2022-052BB
轨道中心:
EARTH
卫星名称:
星链-3846
卫星全名:
星链-3846 (STARLINK-3846 )
卫星状态:
在轨 (已飞行1270 天)
发射日期:
2022-05-14 UTC
国别 :
美国 (US)
星等 :
--
轨道信息
数据来源 国际轨道数据
星历时间: 2025-11-05T00:10:11+0800
4小时前
查看轨道信息
半长轴: 6641.984km
偏心率: 0.0005216
轨道倾角: 53.209°
近地点辐角 147.398°
升交点赤经 87.112°
平近点角 212.738°
近地点: 260.384km
远地点: 267.314km
周期: 89.786分钟
每日圈数: 16.038215
详细信息
固有亮度:
5
最大亮度:
2.5
卫星平台:
Starlink v1.5
覆盖范围:
全球
运营商:
太空探索技术公司
运营商所在国:
美国
制造商(研发单位):
太空探索技术公司
制造商所在国:
美国
使用方式:
暂无
卫星简介
星链(Starlink)计划是由太空探索技术公司(SpaceX)提出的一个巨型低轨卫星互联网星座项目,计划在2019年至2024年间在太空搭建由约1.2万颗卫星组成的“星链”网络,其中1584颗将部署在地球上空550千米处的近地轨道,并从2020年开始工作。该卫星仍在工作。
2D轨道图
3D轨道图
轨道高度分析图
轨道倾角分析图
轨道综合分析图
查看轨道综合分析图